| time (UTC) | temp F | wind direction | speed knots | gust knots | rain 1hr in | rain 24hr in | rain mn in | humidity % | barometer mb |
| 20260504081803 | 69 | 305 | 5.2 | 9.6 | 0.00 | 0.00 | 0.00 | 63 | 1012.5 |
| 20260504080903 | 69 | 306 | 5.2 | 11.3 | 0.00 | 0.00 | 0.00 | 63 | 1012.7 |
| 20260504050003 | 64 | 313 | 5.2 | 11.3 | 0.00 | 0.00 | 0.00 | 71 | 1013.4 |
| 20260504045403 | 64 | 308 | 7.8 | 15.6 | 0.00 | 0.00 | 0.00 | 72 | 1013.5 |
| 20260504044504 | 63 | 303 | 10.4 | 16.5 | 0.00 | 0.00 | 0.00 | 72 | 1013.5 |
| 20260504043603 | 63 | 311 | 7.8 | 15.6 | 0.00 | 0.00 | 0.00 | 73 | 1013.0 |
| 20260504042703 | 63 | 307 | 7.8 | 13.0 | 0.00 | 0.00 | 0.00 | 73 | 1013.0 |
| 20260504041804 | 63 | 319 | 7.0 | 13.9 | 0.00 | 0.00 | 0.00 | 73 | 1012.9 |
| 20260504040903 | 63 | 315 | 7.0 | 15.6 | 0.00 | 0.00 | 0.00 | 74 | 1012.3 |
| 20260504040004 | 62 | 309 | 7.8 | 13.9 | 0.00 | 0.00 | 0.00 | 74 | 1012.1 |
| 20260504035424 | 62 | 316 | 6.1 | 13.9 | 0.00 | 0.00 | 0.00 | 75 | 1012.1 |
| 20260504034504 | 62 | 321 | 6.1 | 13.0 | 0.00 | 0.00 | 0.00 | 76 | 1012.2 |
| 20260504033604 | 61 | 327 | 7.0 | 14.8 | 0.00 | 0.00 | 0.00 | 76 | 1012.3 |
| 20260504032725 | 61 | 313 | 7.8 | 14.8 | 0.00 | 0.00 | 0.00 | 76 | 1012.3 |
| 20260504031824 | 61 | 310 | 7.0 | 12.2 | 0.00 | 0.00 | 0.00 | 75 | 1012.3 |
| 20260504030904 | 61 | 305 | 7.0 | 12.2 | 0.00 | 0.00 | 0.00 | 76 | 1012.4 |
| 20260504030003 | 61 | 319 | 4.3 | 8.7 | 0.00 | 0.00 | 0.00 | 76 | 1012.2 |
| 20260504025403 | 60 | 308 | 6.1 | 9.6 | 0.00 | 0.00 | 0.00 | 77 | 1012.2 |
| 20260504024503 | 61 | 309 | 5.2 | 9.6 | 0.00 | 0.00 | 0.00 | 76 | 1012.4 |
| 20260504023603 | 61 | 305 | 5.2 | 8.7 | 0.00 | 0.00 | 0.00 | 76 | 1012.0 |
| 20260504022724 | 61 | 316 | 4.3 | 8.7 | 0.00 | 0.00 | 0.00 | 75 | 1012.0 |
| 20260504021803 | 61 | 312 | 6.1 | 8.7 | 0.00 | 0.00 | 0.00 | 75 | 1011.8 |
| 20260504020904 | 62 | 304 | 4.3 | 8.7 | 0.00 | 0.00 | 0.00 | 73 | 1011.7 |
| 20260504020002 | 62 | 312 | 7.0 | 12.2 | 0.00 | 0.00 | 0.00 | 72 | 1011.5 |
| 20260504015402 | 62 | 310 | 8.7 | 13.9 | 0.00 | 0.00 | 0.00 | 72 | 1011.8 |
| 20260504014503 | 63 | 310 | 7.8 | 13.9 | 0.00 | 0.00 | 0.00 | 71 | 1011.5 |
| 20260504013603 | 63 | 305 | 6.1 | 13.0 | 0.00 | 0.00 | 0.00 | 71 | 1011.5 |
| 20260504012702 | 63 | 310 | 5.2 | 11.3 | 0.00 | 0.00 | 0.00 | 72 | 1011.4 |
| 20260504011823 | 63 | 331 | 5.2 | 13.9 | 0.00 | 0.00 | 0.00 | 71 | 1011.5 |
| 20260504010903 | 63 | 344 | 4.3 | 11.3 | 0.00 | 0.00 | 0.00 | 71 | 1011.5 |
| 20260504010002 | 64 | 320 | 5.2 | 11.3 | 0.00 | 0.00 | 0.00 | 70 | 1011.7 |
| 20260504005402 | 64 | 311 | 6.1 | 11.3 | 0.00 | 0.00 | 0.00 | 70 | 1011.6 |
| 20260504004503 | 64 | 308 | 8.7 | 15.6 | 0.00 | 0.00 | 0.00 | 70 | 1011.5 |
| 20260504003605 | 64 | 308 | 9.6 | 15.6 | 0.00 | 0.00 | 0.00 | 69 | 1011.3 |
| 20260504002702 | 65 | 312 | 6.1 | 12.2 | 0.00 | 0.00 | 0.00 | 70 | 1010.9 |
| 20260504001802 | 65 | 314 | 6.1 | 13.9 | 0.00 | 0.00 | 0.00 | 69 | 1011.1 |
| 20260504000903 | 65 | 307 | 7.8 | 13.9 | 0.00 | 0.00 | 0.00 | 68 | 1011.1 |
| 20260504000024 | 66 | 304 | 11.3 | 19.1 | 0.00 | 0.00 | 0.00 | 68 | 1011.0 |
| 20260503235424 | 66 | 308 | 13.9 | 20.0 | 0.00 | 0.00 | 0.00 | 67 | 1011.4 |
| 20260503234502 | 66 | 312 | 11.3 | 20.0 | 0.00 | 0.00 | 0.00 | 67 | 1010.9 |
| 20260503233603 | 67 | 310 | 12.2 | 19.1 | 0.00 | 0.00 | 0.00 | 67 | 1010.7 |
| 20260503232703 | 67 | 313 | 9.6 | 19.1 | 0.00 | 0.00 | 0.00 | 67 | 1010.6 |
| 20260503231823 | 67 | 320 | 7.8 | 15.6 | 0.00 | 0.00 | 0.00 | 67 | 1010.9 |
| 20260503230902 | 68 | 320 | 6.1 | 18.2 | 0.00 | 0.00 | 0.00 | 68 | 1010.7 |
| 20260503230003 | 69 | 315 | 5.2 | 18.2 | 0.00 | 0.00 | 0.00 | 68 | 1010.6 |
| 20260503225402 | 69 | 323 | 4.3 | 12.2 | 0.00 | 0.00 | 0.00 | 68 | 1011.0 |
| 20260503224502 | 69 | 315 | 9.6 | 16.5 | 0.00 | 0.00 | 0.00 | 67 | 1010.9 |
| 20260503223603 | 70 | 313 | 10.4 | 16.5 | 0.00 | 0.00 | 0.00 | 66 | 1010.4 |
| 20260503222724 | 71 | 316 | 9.6 | 20.9 | 0.00 | 0.00 | 0.00 | 65 | 1009.8 |
| 20260503221803 | 71 | 319 | 7.0 | 14.8 | 0.00 | 0.00 | 0.00 | 64 | 1009.2 |
| 20260503220903 | 72 | 320 | 7.8 | 15.6 | 0.00 | 0.00 | 0.00 | 62 | 1009.3 |
| 20260503220002 | 72 | 318 | 5.2 | 14.8 | 0.00 | 0.00 | 0.00 | 61 | 1009.0 |
| 20260503215402 | 73 | 320 | 5.2 | 12.2 | 0.00 | 0.00 | 0.00 | 61 | 1009.1 |
| 20260503214502 | 73 | 322 | 5.2 | 12.2 | 0.00 | 0.00 | 0.00 | 61 | 1009.1 |
| 20260503213602 | 73 | 317 | 7.0 | 13.9 | 0.00 | 0.00 | 0.00 | 61 | 1009.2 |
| 20260503212703 | 73 | 314 | 10.4 | 19.1 | 0.00 | 0.00 | 0.00 | 62 | 1008.8 |
| 20260503211824 | 74 | 308 | 11.3 | 19.1 | 0.00 | 0.00 | 0.00 | 63 | 1008.9 |
| 20260503210903 | 74 | 312 | 11.3 | 21.7 | 0.00 | 0.00 | 0.00 | 63 | 1007.8 |
| 20260503210003 | 75 | 315 | 11.3 | 19.1 | 0.00 | 0.00 | 0.00 | 64 | 1007.8 |
| 20260503205424 | 75 | 310 | 11.3 | 20.0 | 0.00 | 0.00 | 0.00 | 64 | 1007.8 |
| 20260503204524 | 76 | 307 | 12.2 | 21.7 | 0.00 | 0.00 | 0.00 | 63 | 1007.6 |
| 20260503203603 | 77 | 305 | 14.8 | 25.2 | 0.00 | 0.00 | 0.00 | 61 | 1007.3 |
| 20260503202724 | 80 | 276 | 8.7 | 22.6 | 0.00 | 0.00 | 0.00 | 55 | 1006.8 |
| 20260503201804 | 81 | 224 | 1.7 | 6.1 | 0.00 | 0.00 | 0.00 | 49 | 1006.4 |
| 20260503200903 | 81 | 219 | 3.5 | 7.0 | 0.00 | 0.00 | 0.00 | 49 | 1006.3 |
| 20260503200003 | 81 | 239 | 5.2 | 13.0 | 0.00 | 0.00 | 0.00 | 48 | 1006.0 |
| 20260503195424 | 82 | 237 | 6.1 | 13.0 | 0.00 | 0.00 | 0.00 | 49 | 1006.0 |
| 20260503194503 | 82 | 44 | 0.9 | 5.2 | 0.00 | 0.00 | 0.00 | 47 | 1005.5 |
| 20260503193603 | 82 | 85 | 1.7 | 8.7 | 0.00 | 0.00 | 0.00 | 47 | 1005.0 |
| 20260503192727 | 82 | 13 | 2.6 | 7.0 | 0.00 | 0.00 | 0.00 | 46 | 1004.7 |
| 20260503191824 | 82 | 46 | 1.7 | 7.0 | 0.00 | 0.00 | 0.00 | 46 | 1004.8 |
| 20260503190903 | 82 | 124 | 3.5 | 13.9 | 0.00 | 0.00 | 0.00 | 47 | 1005.0 |
| 20260503190003 | 82 | 118 | 4.3 | 13.9 | 0.00 | 0.00 | 0.00 | 49 | 1005.2 |
| 20260503185424 | 82 | 110 | 2.6 | 7.8 | 0.00 | 0.00 | 0.00 | 50 | 1005.3 |
| 20260503184503 | 82 | 129 | 3.5 | 9.6 | 0.00 | 0.00 | 0.00 | 50 | 1004.7 |
| 20260503183603 | 83 | 188 | 1.7 | 7.8 | 0.00 | 0.00 | 0.00 | 48 | 1004.6 |
| 20260503182703 | 82 | 91 | 0.9 | 3.5 | 0.00 | 0.00 | 0.00 | 52 | 1005.1 |
| 20260503181803 | 82 | 105 | 2.6 | 12.2 | 0.00 | 0.00 | 0.00 | 51 | 1004.4 |
| 20260503180903 | 82 | 136 | 4.3 | 12.2 | 0.00 | 0.00 | 0.00 | 50 | 1004.8 |
| 20260503180004 | 81 | 127 | 6.1 | 13.9 | 0.00 | 0.00 | 0.00 | 55 | 1004.8 |
| 20260503175424 | 82 | 128 | 6.1 | 13.9 | 0.00 | 0.00 | 0.00 | 56 | 1005.1 |
| 20260503174503 | 81 | 118 | 5.2 | 11.3 | 0.00 | 0.00 | 0.00 | 58 | 1005.8 |
| 20260503173603 | 81 | 132 | 7.0 | 13.0 | 0.00 | 0.00 | 0.00 | 59 | 1005.8 |
| 20260503172703 | 81 | 123 | 8.7 | 15.6 | 0.00 | 0.00 | 0.00 | 59 | 1005.4 |
| 20260503171803 | 81 | 117 | 7.8 | 13.0 | 0.00 | 0.00 | 0.00 | 59 | 1004.3 |
| 20260503170903 | 82 | 110 | 7.0 | 12.2 | 0.00 | 0.00 | 0.00 | 58 | 1004.0 |
| 20260503130902 | 85 | 107 | 7.0 | 13.0 | 0.00 | 0.00 | 0.00 | 56 | 1005.6 |